Simultaneous Nadir Overpasses (SNOs) Predictions

Prediction of SNOs between NOAA-19 and NPP Satellite Orbit:

Table of predicted SNOs for the next 14.0 days since TLE Epoch: 12/4/2021
Index Date (NOAA-19) Time (NOAA-19) Lat,Lon (NOAA-19) SZA (NOAA-19 ) Date (NPP) Time (NPP) Lat,Lon (NPP) SZA (NPP ) Distance(km) Time Diff (sec)
1 12/08/2021 13:52:55 -77.63, 128.79 78.90 12/08/2021 13:54:04 -77.63, 128.86 78.93 1.68 69
2 12/08/2021 14:43:49 77.63, -63.94 101.11 12/08/2021 14:44:50 77.65, -63.91 101.10 2.36 61
3 12/08/2021 15:34:55 -77.63, 103.32 78.89 12/08/2021 15:35:34 -77.64, 103.45 78.91 2.97 39
4 12/08/2021 16:25:49 77.63, -89.41 101.12 12/08/2021 16:26:20 77.66, -89.32 101.12 3.09 31
5 12/08/2021 17:16:54 -77.68, 78.07 78.86 12/08/2021 17:17:04 -77.65, 78.04 78.89 3.87 10
6 12/08/2021 18:07:48 77.68,-114.66 101.15 12/08/2021 18:07:50 77.66,-114.73 101.14 2.53 2
7 12/08/2021 18:58:54 -77.69, 52.60 78.85 12/08/2021 18:58:34 -77.65, 52.63 78.87 3.75 20
8 12/08/2021 19:49:48 77.69,-140.12 101.16 12/08/2021 19:49:20 77.67,-140.14 101.16 1.83 28
9 12/08/2021 20:40:54 -77.69, 27.14 78.84 12/08/2021 20:40:05 -77.70, 27.02 78.80 3.01 49
10 12/08/2021 21:31:48 77.69,-165.59 101.17 12/08/2021 21:30:50 77.68,-165.55 101.17 1.89 58
11 12/08/2021 22:22:50 -77.85, 2.52 78.74 12/08/2021 22:21:39 -77.87, 0.80 78.57 40.18 71



Historial Predications of SNOs between NOAA-19 and NPP
